• In Moldova, Republic
  • List of Countries
  • For 7 days
  • Water Temperature
  • Satellite Maps
  • Weather Map
  • Weather Widgets
  • user-avatar
    Login

    Hourly Weather Voshod

    Today, 22 July, Sunday

    Time Temperature Precipitation Wind Pressure Humidity
    00:00 +19°C° 0.1 mm 2 mps 742 mmHg 94%
    01:00 +18°C° 0.1 mm 2 mps 742 mmHg 94%
    02:00 +18°C° 0 mm 2 mps 742 mmHg 96%
    03:00 +18°C° 0.7 mm 2 mps 742 mmHg 96%
    04:00 +18°C° 0.7 mm 2 mps 742 mmHg 96%
    05:00 +18°C° 0.7 mm 2 mps 742 mmHg 97%
    06:00 +19°C° 0.7 mm 2 mps 742 mmHg 94%
    07:00 +20°C° 0.7 mm 2 mps 742 mmHg 92%
    08:00 +21°C° 0.7 mm 3 mps 742 mmHg 89%
    09:00 +22°C° 0.9 mm 3 mps 742 mmHg 85%
    10:00 +24°C° 0.9 mm 3 mps 742 mmHg 81%
    11:00 +26°C° 0.9 mm 3 mps 741 mmHg 77%
    12:00 +26°C° 1.1 mm 3 mps 741 mmHg 76%
    13:00 +26°C° 1.1 mm 3 mps 741 mmHg 75%
    14:00 +27°C° 0 mm 2 mps 741 mmHg 72%
    15:00 +26°C° 0.7 mm 2 mps 741 mmHg 75%
    16:00 +26°C° 0.7 mm 3 mps 741 mmHg 77%
    17:00 +26°C° 0.7 mm 3 mps 741 mmHg 79%
    18:00 +25°C° 0.2 mm 3 mps 741 mmHg 84%
    19:00 +24°C° 0.2 mm 2 mps 741 mmHg 88%
    20:00 +23°C° 0.2 mm 2 mps 741 mmHg 93%
    21:00 +21°C° 0.6 mm 2 mps 741 mmHg 94%
    22:00 +20°C° 0.6 mm 2 mps 741 mmHg 95%
    23:00 +20°C° 0.6 mm 2 mps 741 mmHg 96%

    Tomorrow, 23 July, Monday

    Time Temperature Precipitation Wind Pressure Humidity
    00:00 +20°C° 0.3 mm 2 mps 741 mmHg 97%
    01:00 +19°C° 0.3 mm 3 mps 741 mmHg 97%
    02:00 +19°C° 0.3 mm 3 mps 741 mmHg 98%
    03:00 +19°C° 0 mm 3 mps 741 mmHg 98%
    04:00 +19°C° 0 mm 3 mps 741 mmHg 98%
    05:00 +19°C° 0 mm 3 mps 741 mmHg 98%
    06:00 +19°C° 0 mm 3 mps 741 mmHg 96%
    07:00 +20°C° 0 mm 3 mps 741 mmHg 94%
    08:00 +21°C° 0 mm 3 mps 741 mmHg 92%
    09:00 +22°C° 0.1 mm 4 mps 741 mmHg 89%
    10:00 +22°C° 0.1 mm 4 mps 741 mmHg 87%
    11:00 +23°C° 0.1 mm 4 mps 741 mmHg 84%
    12:00 +23°C° 0.2 mm 4 mps 741 mmHg 82%
    13:00 +25°C° 0.2 mm 5 mps 741 mmHg 80%
    14:00 +25°C° 0.2 mm 5 mps 741 mmHg 78%
    15:00 +25°C° 0.1 mm 5 mps 741 mmHg 80%
    16:00 +23°C° 0.1 mm 4 mps 741 mmHg 81%
    17:00 +23°C° 0.1 mm 4 mps 741 mmHg 82%
    18:00 +22°C° 0 mm 3 mps 741 mmHg 84%
    19:00 +22°C° 0 mm 3 mps 741 mmHg 86%
    20:00 +21°C° 0 mm 3 mps 742 mmHg 88%
    21:00 +20°C° 0 mm 3 mps 742 mmHg 90%
    22:00 +20°C° 0 mm 3 mps 742 mmHg 92%
    23:00 +19°C° 0 mm 3 mps 742 mmHg 94%

    Day after tomorrow, 24 July, Tuesday

    Time Temperature Precipitation Wind Pressure Humidity
    00:00 +19°C° 0 mm 3 mps 742 mmHg 95%
    01:00 +18°C° 0 mm 3 mps 742 mmHg 96%
    02:00 +18°C° 0 mm 3 mps 742 mmHg 97%
    03:00 +18°C° 0 mm 3 mps 742 mmHg 96%
    04:00 +18°C° 0 mm 3 mps 742 mmHg 96%
    05:00 +18°C° 0 mm 4 mps 742 mmHg 96%
    06:00 +19°C° 0 mm 4 mps 742 mmHg 94%
    07:00 +19°C° 0 mm 4 mps 742 mmHg 92%
    08:00 +20°C° 0 mm 4 mps 743 mmHg 91%
    09:00 +20°C° 0 mm 3 mps 743 mmHg 89%
    10:00 +21°C° 0 mm 3 mps 743 mmHg 87%
    11:00 +21°C° 0 mm 3 mps 743 mmHg 86%
    12:00 +22°C° 0.1 mm 3 mps 743 mmHg 85%
    13:00 +22°C° 0.1 mm 3 mps 743 mmHg 84%
    14:00 +23°C° 0.1 mm 4 mps 743 mmHg 83%
    15:00 +24°C° 0.2 mm 3 mps 743 mmHg 82%
    16:00 +25°C° 0.2 mm 3 mps 743 mmHg 81%
    17:00 +25°C° 0.2 mm 3 mps 743 mmHg 80%
    18:00 +24°C° 0.1 mm 3 mps 743 mmHg 85%
    19:00 +23°C° 0.1 mm 2 mps 743 mmHg 89%
    20:00 +21°C° 0.1 mm 2 mps 743 mmHg 93%
    21:00 +21°C° 0.4 mm 2 mps 743 mmHg 94%
    22:00 +20°C° 0.4 mm 2 mps 743 mmHg 95%
    23:00 +20°C° 0.4 mm 2 mps 743 mmHg 95%

    25 July, Wednesday

    Time Temperature Precipitation Wind Pressure Humidity
    00:00 +19°C° 0 mm 2 mps 743 mmHg 95%
    01:00 +19°C° 0 mm 2 mps 743 mmHg 95%
    02:00 +19°C° 0 mm 2 mps 743 mmHg 95%
    03:00 +19°C° 0 mm 2 mps 743 mmHg 95%
    04:00 +19°C° 0 mm 2 mps 744 mmHg 95%
    05:00 +19°C° 0 mm 2 mps 744 mmHg 95%
    06:00 +20°C° 0 mm 2 mps 744 mmHg 91%
    07:00 +23°C° 0 mm 2 mps 744 mmHg 86%
    08:00 +24°C° 0 mm 2 mps 744 mmHg 82%
    09:00 +25°C° 1.1 mm 2 mps 744 mmHg 78%
    10:00 +27°C° 1.1 mm 3 mps 744 mmHg 74%
    11:00 +28°C° 1.1 mm 3 mps 744 mmHg 70%
    12:00 +28°C° 0.6 mm 3 mps 744 mmHg 67%
    13:00 +29°C° 0.6 mm 3 mps 744 mmHg 64%
    14:00 +29°C° 0.6 mm 3 mps 744 mmHg 60%
    15:00 +29°C° 0.9 mm 3 mps 744 mmHg 65%
    16:00 +28°C° 0.9 mm 3 mps 744 mmHg 70%
    17:00 +28°C° 0.9 mm 3 mps 744 mmHg 75%
    18:00 +26°C° 0.7 mm 3 mps 744 mmHg 81%
    19:00 +24°C° 0.7 mm 3 mps 744 mmHg 86%
    20:00 +22°C° 0.7 mm 3 mps 745 mmHg 91%
    21:00 +21°C° 0.2 mm 3 mps 745 mmHg 93%
    22:00 +20°C° 0.2 mm 2 mps 745 mmHg 94%
    23:00 +19°C° 0.2 mm 2 mps 745 mmHg 96%

    26 July, Thursday

    Time Temperature Precipitation Wind Pressure Humidity
    00:00 +19°C° 0 mm 2 mps 745 mmHg 96%
    01:00 +19°C° 0 mm 2 mps 745 mmHg 96%
    02:00 +18°C° 0 mm 2 mps 745 mmHg 96%
    03:00 +18°C° 0.2 mm 2 mps 745 mmHg 97%
    04:00 +18°C° 0.2 mm 2 mps 746 mmHg 97%
    05:00 +19°C° 0.2 mm 1 mps 746 mmHg 97%
    06:00 +21°C° 0 mm 1 mps 746 mmHg 93%
    07:00 +22°C° 0 mm 1 mps 746 mmHg 89%
    08:00 +24°C° 0 mm 1 mps 746 mmHg 85%
    09:00 +25°C° 0.4 mm 2 mps 746 mmHg 80%
    10:00 +26°C° 0.4 mm 2 mps 746 mmHg 76%
    11:00 +28°C° 0.4 mm 2 mps 747 mmHg 72%
    12:00 +28°C° 0.8 mm 2 mps 747 mmHg 69%
    13:00 +29°C° 0.8 mm 2 mps 747 mmHg 65%
    14:00 +30°C° 0.8 mm 2 mps 747 mmHg 62%
    15:00 +30°C° 0.1 mm 2 mps 747 mmHg 65%
    16:00 +30°C° 0.1 mm 2 mps 747 mmHg 67%
    17:00 +29°C° 0.1 mm 2 mps 746 mmHg 70%
    18:00 +28°C° 0.4 mm 2 mps 747 mmHg 75%
    19:00 +26°C° 0.4 mm 2 mps 747 mmHg 81%
    20:00 +25°C° 0.4 mm 2 mps 747 mmHg 86%
    21:00 +24°C° 0.1 mm 2 mps 747 mmHg 88%
    22:00 +23°C° 0.1 mm 2 mps 747 mmHg 90%
    23:00 +23°C° 0.1 mm 2 mps 747 mmHg 92%

    27 July, Friday

    Time Temperature Precipitation Wind Pressure Humidity
    00:00 +23°C° 0 mm 2 mps 747 mmHg 93%
    01:00 +21°C° 0 mm 2 mps 747 mmHg 94%
    02:00 +21°C° 0 mm 2 mps 747 mmHg 95%
    03:00 +21°C° 0 mm 2 mps 747 mmHg 95%
    04:00 +21°C° 0 mm 2 mps 747 mmHg 95%
    05:00 +21°C° 0 mm 2 mps 747 mmHg 96%
    06:00 +23°C° 0 mm 2 mps 748 mmHg 92%
    07:00 +24°C° 0 mm 3 mps 748 mmHg 88%
    08:00 +25°C° 0 mm 3 mps 748 mmHg 85%
    09:00 +26°C° 0.3 mm 3 mps 748 mmHg 80%
    10:00 +28°C° 0.3 mm 3 mps 748 mmHg 76%
    11:00 +29°C° 0.3 mm 4 mps 748 mmHg 71%
    12:00 +29°C° 0.8 mm 4 mps 748 mmHg 69%
    13:00 +30°C° 0.8 mm 4 mps 748 mmHg 67%
    14:00 +32°C° 0.8 mm 4 mps 748 mmHg 65%
    15:00 +30°C° 0.5 mm 4 mps 748 mmHg 67%
    16:00 +30°C° 0.5 mm 4 mps 748 mmHg 68%
    17:00 +30°C° 0.5 mm 4 mps 748 mmHg 70%
    18:00 +28°C° 0 mm 4 mps 748 mmHg 73%
    19:00 +27°C° 0 mm 4 mps 748 mmHg 76%
    20:00 +26°C° 0 mm 4 mps 749 mmHg 79%
    21:00 +25°C° 0 mm 4 mps 749 mmHg 79%
    22:00 +25°C° 0 mm 4 mps 749 mmHg 79%
    23:00 +23°C° 0 mm 4 mps 749 mmHg 79%
    Show more